FW5697 Weather Reports


time (UTC)temp
C
wind
direction
speed
KPH
gust
KPH
rain 1hr
cm
rain 24hr
cm
rain mn
cm
humidity
%
barometer
mb
20240614114514 18 0 0.0 0.0 0.00 0.00 0.00 92 1015.9
20240614113012 17 0 0.0 0.0 0.00 0.00 0.00 92 1015.8
20240614111516 17 0 0.0 0.0 0.00 0.00 0.00 92 1015.8
20240614110011 17 0 0.0 0.0 0.00 0.00 0.00 92 1015.5
20240614104519 17 0 0.0 0.0 0.00 0.00 0.00 91 1015.4
20240614103011 17 0 0.0 0.0 0.00 0.00 0.00 91 1015.4
20240614101518 17 0 0.0 1.6 0.00 0.00 0.00 91 1015.5
20240614100017 17 0 0.0 0.0 0.00 0.00 0.00 91 1015.5
20240614094518 17 0 0.0 1.6 0.00 0.00 0.00 91 1015.4
20240614093019 17 0 0.0 1.6 0.00 0.00 0.00 91 1015.2
20240614091529 18 0 0.0 1.6 0.00 0.00 0.00 91 1015.2
20240614090014 18 0 0.0 1.6 0.00 0.00 0.00 91 1015.0
20240614084514 18 0 0.0 0.0 0.00 0.00 0.00 90 1015.0
20240614083016 18 0 0.0 0.0 0.00 0.00 0.00 90 1014.9
20240614081523 18 0 0.0 0.0 0.00 0.00 0.00 90 1015.1
20240614080013 18 0 0.0 0.0 0.00 0.00 0.00 89 1014.9
20240614074514 18 0 0.0 0.0 0.00 0.00 0.00 89 1015.1
20240614073013 18 0 0.0 0.0 0.00 0.00 0.00 88 1015.2
20240614071513 18 0 0.0 0.0 0.00 0.00 0.00 88 1015.1
20240614070016 19 0 0.0 0.0 0.00 0.00 0.00 88 1014.9
20240614064511 19 0 0.0 0.0 0.00 0.00 0.00 87 1014.6
20240614063014 19 0 0.0 0.0 0.00 0.00 0.00 87 1014.4
20240614061512 19 0 0.0 0.0 0.00 0.00 0.00 87 1014.5
20240614060018 20 0 0.0 0.0 0.00 0.00 0.00 86 1014.6
20240614054526 20 0 0.0 0.0 0.00 0.00 0.00 86 1014.6
20240614053024 20 0 0.0 0.0 0.00 0.00 0.00 85 1014.5
20240614051512 20 0 0.0 0.0 0.00 0.00 0.00 85 1014.4
20240614050020 20 0 0.0 0.0 0.00 0.00 0.00 84 1014.5
20240614044523 21 0 0.0 0.0 0.00 0.00 0.00 84 1014.6
20240614043013 21 0 0.0 0.0 0.00 0.00 0.00 82 1014.6
20240614041520 21 0 0.0 0.0 0.00 0.00 0.00 82 1014.7
20240614040015 21 0 0.0 0.0 0.00 0.00 0.00 81 1014.6
20240614034514 21 0 0.0 0.0 0.00 0.00 0.00 81 1014.6
20240614033011 22 0 0.0 0.0 0.00 0.00 0.00 80 1014.6
20240614031516 22 0 0.0 0.0 0.00 0.00 0.00 79 1014.8
20240614030014 22 0 0.0 0.0 0.00 0.00 0.00 77 1014.6
20240614024514 23 0 0.0 0.0 0.00 0.00 0.00 75 1014.4
20240614023015 23 0 0.0 0.0 0.00 0.00 0.00 74 1014.4
20240614021515 23 0 0.0 0.0 0.00 0.00 0.00 72 1014.4
20240614020014 24 0 0.0 0.0 0.00 0.00 0.00 71 1014.3
20240614014516 25 0 0.0 1.6 0.00 0.00 0.00 69 1014.2
20240614013016 25 0 0.0 0.0 0.00 0.00 0.00 65 1014.2
20240614011516 26 0 0.0 0.0 0.00 0.00 0.00 62 1014.1
20240614010011 27 0 0.0 0.0 0.00 0.00 0.00 60 1014.0
20240614004533 28 0 0.0 0.0 0.00 0.00 0.00 56 1014.0
20240614003020 28 0 0.0 0.0 0.00 0.00 0.00 55 1014.1
20240614001518 29 0 0.0 0.0 0.00 0.00 0.00 53 1014.2
20240614000020 30 0 0.0 0.0 0.00 0.00 0.00 51 1014.3
20240613234553 30 0 0.0 0.0 0.00 0.00 0.00 49 1014.3
20240613233017 30 0 0.0 1.6 0.00 0.00 0.00 47 1014.3
20240613231519 31 0 0.0 1.6 0.00 0.00 0.00 45 1014.3
20240613230020 32 0 0.0 3.2 0.00 0.00 0.00 43 1014.3
20240613224516 32 94 1.6 8.0 0.00 0.00 0.00 41 1014.1
20240613223015 32 0 1.6 4.8 0.00 0.00 0.00 41 1013.8
20240613221516 32 326 0.0 6.4 0.00 0.00 0.00 41 1013.8
20240613220017 32 0 1.6 8.0 0.00 0.00 0.00 40 1014.0
20240613214518 31 0 0.0 8.0 0.00 0.00 0.00 45 1014.0
20240613213034 31 0 0.0 1.6 0.00 0.00 0.00 45 1014.0
20240613211513 31 0 0.0 6.4 0.00 0.00 0.00 44 1014.1
20240613210027 32 65 3.2 12.9 0.00 0.00 0.00 43 1014.0
20240613204512 32 79 0.0 4.8 0.00 0.00 0.00 41 1014.1
20240613203016 32 95 1.6 4.8 0.00 0.00 0.00 44 1014.1
20240613201516 32 39 3.2 16.1 0.00 0.00 0.00 44 1014.2
20240613200013 32 38 1.6 3.2 0.00 0.00 0.00 44 1014.3
20240613194517 32 117 1.6 6.4 0.00 0.00 0.00 45 1014.4
20240613193017 32 10 4.8 11.3 0.00 0.00 0.00 45 1014.6
20240613191514 32 9 1.6 8.0 0.00 0.00 0.00 44 1014.7
20240613190012 31 167 3.2 9.7 0.00 0.00 0.00 45 1014.9
20240613184515 31 86 1.6 9.7 0.00 0.00 0.00 49 1015.1
20240613183015 31 149 1.6 16.1 0.00 0.00 0.00 48 1015.3
20240613181523 31 36 1.6 4.8 0.00 0.00 0.00 48 1015.4
20240613180030 31 0 3.2 11.3 0.00 0.00 0.00 45 1015.5
20240613174527 31 142 1.6 4.8 0.00 0.00 0.00 46 1015.5
20240613173037 31 126 1.6 16.1 0.00 0.00 0.00 46 1015.7
20240613171515 31 91 3.2 8.0 0.00 0.00 0.00 46 1015.7
20240613170023 31 98 1.6 6.4 0.00 0.00 0.00 47 1015.9
20240613164520 31 84 3.2 8.0 0.00 0.00 0.00 48 1015.9
20240613163018 30 122 1.6 12.9 0.00 0.00 0.00 48 1016.1
20240613161539 30 0 0.0 12.9 0.00 0.00 0.00 50 1016.3
20240613160013 29 15 4.8 11.3 0.00 0.00 0.00 52 1016.3
20240613154519 29 40 1.6 6.4 0.00 0.00 0.00 52 1016.3
20240613153031 28 41 3.2 6.4 0.00 0.00 0.00 55 1016.4
20240613151515 27 32 3.2 8.0 0.00 0.00 0.00 59 1016.3
20240613150019 27 30 0.0 3.2 0.00 0.00 0.00 59 1016.3
20240613144519 26 63 1.6 6.4 0.00 0.00 0.00 66 1016.6
20240613143011 25 5 0.0 3.2 0.00 0.00 0.00 71 1016.6
20240613141516 25 71 0.0 4.8 0.00 0.00 0.00 71 1016.6
20240613140016 24 56 1.6 6.4 0.00 0.00 0.00 76 1016.6
20240613134520 24 43 3.2 6.4 0.00 0.00 0.00 77 1016.7
20240613133014 23 36 1.6 4.8 0.00 0.00 0.00 80 1016.8
20240613131512 23 54 0.0 3.2 0.00 0.00 0.00 82 1016.6
20240613130013 22 0 0.0 4.8 0.00 0.00 0.00 82 1016.7
20240613124513 22 0 1.6 3.2 0.00 0.00 0.00 84 1016.5
20240613123012 21 36 0.0 3.2 0.00 0.00 0.00 85 1016.3
20240613121514 20 36 1.6 3.2 0.00 0.00 0.00 87 1016.2
20240613120015 19 0 0.0 3.2 0.00 0.00 0.00 89 1016.1